User: anonymous   Login
Location: Bothwell
(42.3833°S, 147.0000°E)
Time: 01:19:57
(UTC+10:00)
Language:

FO-99 - Orbit

View from above orbital plane
View from above orbital plane
View from above satellite
View from above satellite

Ground track
Ground track

The orbit data is extracted from the following two-line orbital elements,

1 43937U 19003F   22273.80147492  .00019404  00000-0  60590-3 0  9991
2 43937  97.1227 303.1655 0021108 133.0535 227.2480 15.33004672206106
Epoch (UTC): 30 September 2022 19:14:07
Eccentricity: 0.0021108
inclination: 97.1227°
perigee height: 452 km
apogee height: 481 km
right ascension of ascending node: 303.1655°
argument of perigee: 133.0535°
revolutions per day: 15.33004672
mean anomaly at epoch: 227.2480°
orbit number at epoch: 20610

The dashed part of the orbit path shows where the satellite is in the earth's shadow,  

DLR